GIA777 WADD-WAAA

Flight info

Callsign GIA777
Flight time 1h 13m
Altitude 39000
Route PEDET W41 LIPOT
Aircraft B77W/H-SDE1E2E3FGHIJ2J3J4J5M1RWXY/LB1D1

Departure

Time 2026-04-22 13:08
Airport Denpasar I Gusti Ngurah Rai International Airport (WADD)

Arrival

Time 2026-04-22 14:21
Airport Sultan Hasanuddin International Airport (WAAA)
Time Latitude Longitude Altitude Speed Heading
2026-04-22 12:18 -8.74559 115.16802 38 ft 0 kts 358°
2026-04-22 12:52 -8.74560 115.16802 38 ft 1 kts 358°
2026-04-22 12:53 -8.74574 115.16803 37 ft 3 kts 358°
2026-04-22 12:53 -8.74594 115.16804 38 ft 3 kts 358°
2026-04-22 12:53 -8.74615 115.16805 38 ft 3 kts 358°
2026-04-22 12:53 -8.74635 115.16806 37 ft 3 kts 357°
2026-04-22 12:54 -8.74650 115.16806 37 ft 3 kts 353°
2026-04-22 12:54 -8.74667 115.16811 36 ft 3 kts 309°
2026-04-22 12:54 -8.74674 115.16828 32 ft 3 kts 274°
2026-04-22 12:54 -8.74674 115.16847 36 ft 2 kts 267°
2026-04-22 12:55 -8.74674 115.16854 36 ft 1 kts 268°
2026-04-22 12:55 -8.74674 115.16857 35 ft 0 kts 268°
2026-04-22 12:57 -8.74674 115.16851 36 ft 5 kts 268°
2026-04-22 12:57 -8.74676 115.16807 34 ft 11 kts 268°
2026-04-22 12:57 -8.74679 115.16729 37 ft 11 kts 268°
2026-04-22 12:57 -8.74681 115.16672 37 ft 8 kts 267°
2026-04-22 12:58 -8.74684 115.16622 37 ft 7 kts 267°
2026-04-22 12:58 -8.74686 115.16577 37 ft 5 kts 268°
2026-04-22 12:58 -8.74686 115.16575 37 ft 0 kts 268°
2026-04-22 12:58 -8.74686 115.16573 37 ft 2 kts 268°
2026-04-22 12:59 -8.74688 115.16511 37 ft 9 kts 268°
2026-04-22 12:59 -8.74691 115.16442 37 ft 10 kts 268°
2026-04-22 12:59 -8.74694 115.16369 37 ft 11 kts 268°
2026-04-22 12:59 -8.74696 115.16291 37 ft 12 kts 268°
2026-04-22 13:00 -8.74700 115.16207 38 ft 12 kts 268°
2026-04-22 13:00 -8.74704 115.16119 38 ft 13 kts 267°
2026-04-22 13:00 -8.74708 115.16030 38 ft 13 kts 267°
2026-04-22 13:00 -8.74712 115.15941 38 ft 13 kts 267°
2026-04-22 13:01 -8.74716 115.15854 37 ft 12 kts 267°
2026-04-22 13:01 -8.74719 115.15768 37 ft 12 kts 268°
2026-04-22 13:01 -8.74722 115.15685 37 ft 12 kts 268°
2026-04-22 13:01 -8.74724 115.15606 37 ft 11 kts 268°
2026-04-22 13:02 -8.74727 115.15553 37 ft 6 kts 267°
2026-04-22 13:02 -8.74727 115.15537 37 ft 1 kts 267°
2026-04-22 13:02 -8.74728 115.15521 37 ft 5 kts 267°
2026-04-22 13:02 -8.74730 115.15475 37 ft 8 kts 267°
2026-04-22 13:03 -8.74743 115.15424 37 ft 7 kts 237°
2026-04-22 13:03 -8.74768 115.15404 37 ft 0 kts 206°
2026-04-22 13:04 -8.74775 115.15402 36 ft 2 kts 200°
2026-04-22 13:05 -8.74794 115.15397 36 ft 4 kts 189°
2026-04-22 13:05 -8.74832 115.15395 34 ft 7 kts 181°
2026-04-22 13:05 -8.74864 115.15394 33 ft 3 kts 184°
2026-04-22 13:05 -8.74882 115.15395 33 ft 2 kts 170°
2026-04-22 13:06 -8.74890 115.15400 33 ft 0 kts 142°
2026-04-22 13:06 -8.74893 115.15406 33 ft 1 kts 116°
2026-04-22 13:06 -8.74895 115.15413 33 ft 0 kts 107°
2026-04-22 13:06 -8.74895 115.15414 33 ft 1 kts 98°
2026-04-22 13:07 -8.74894 115.15435 34 ft 14 kts 89°
2026-04-22 13:07 -8.74886 115.15656 33 ft 57 kts 87°
2026-04-22 13:07 -8.74856 115.16359 33 ft 141 kts 88°
2026-04-22 13:07 -8.74798 115.17553 257 ft 184 kts 87°
2026-04-22 13:08 -8.74757 115.18827 1183 ft 179 kts 88°
2026-04-22 13:08 -8.74711 115.20092 2028 ft 187 kts 88°
2026-04-22 13:08 -8.74655 115.21507 2411 ft 217 kts 88°
2026-04-22 13:08 -8.74588 115.23160 2689 ft 253 kts 88°
2026-04-22 13:09 -8.74512 115.24983 3489 ft 263 kts 88°
2026-04-22 13:09 -8.74435 115.26840 4509 ft 266 kts 87°
2026-04-22 13:09 -8.74357 115.28716 5548 ft 268 kts 87°
2026-04-22 13:09 -8.74278 115.30608 6538 ft 271 kts 87°
2026-04-22 13:10 -8.74198 115.32531 7463 ft 275 kts 86°
2026-04-22 13:10 -8.74117 115.34483 8361 ft 280 kts 86°
2026-04-22 13:10 -8.74035 115.36436 9239 ft 284 kts 86°
2026-04-22 13:10 -8.73951 115.38446 10135 ft 288 kts 86°
2026-04-22 13:11 -8.73866 115.40484 11007 ft 292 kts 86°
2026-04-22 13:11 -8.73780 115.42553 11958 ft 296 kts 86°
2026-04-22 13:11 -8.73692 115.44643 13013 ft 299 kts 86°
2026-04-22 13:11 -8.73603 115.46758 14000 ft 304 kts 86°
2026-04-22 13:12 -8.73398 115.48887 14827 ft 307 kts 75°
2026-04-22 13:12 -8.72659 115.50932 15685 ft 311 kts 66°
2026-04-22 13:12 -8.71848 115.52973 16434 ft 318 kts 63°
2026-04-22 13:12 -8.70433 115.54852 16322 ft 356 kts 44°
2026-04-22 13:13 -8.68573 115.56633 16295 ft 382 kts 43°
2026-04-22 13:13 -8.66560 115.58416 16243 ft 392 kts 40°
2026-04-22 13:13 -8.64470 115.60220 16464 ft 397 kts 41°
2026-04-22 13:13 -8.62405 115.62104 17326 ft 401 kts 43°
2026-04-22 13:14 -8.60387 115.64055 18287 ft 403 kts 44°
2026-04-22 13:14 -8.58385 115.66055 19037 ft 407 kts 45°
2026-04-22 13:14 -8.56363 115.68092 19736 ft 411 kts 45°
2026-04-22 13:14 -8.54558 115.70353 20291 ft 419 kts 60°
2026-04-22 13:15 -8.53522 115.72819 20791 ft 421 kts 70°
2026-04-22 13:15 -8.52533 115.75627 21380 ft 428 kts 69°
2026-04-22 13:15 -8.51509 115.78451 22099 ft 432 kts 69°
2026-04-22 13:15 -8.50450 115.81303 22832 ft 435 kts 68°
2026-04-22 13:16 -8.49378 115.84147 23489 ft 440 kts 68°
2026-04-22 13:16 -8.48275 115.87050 24021 ft 445 kts 68°
2026-04-22 13:16 -8.47160 115.89979 24577 ft 449 kts 68°
2026-04-22 13:16 -8.46034 115.92939 25143 ft 452 kts 68°
2026-04-22 13:17 -8.44903 115.95912 25701 ft 456 kts 68°
2026-04-22 13:17 -8.43762 115.98914 26248 ft 459 kts 68°
2026-04-22 13:17 -8.42612 116.01941 26789 ft 462 kts 68°
2026-04-22 13:17 -8.41452 116.04996 27313 ft 466 kts 68°
2026-04-22 13:18 -8.40297 116.08040 27510 ft 474 kts 68°
2026-04-22 13:18 -8.39111 116.11161 27853 ft 476 kts 68°
2026-04-22 13:18 -8.37924 116.14285 28474 ft 476 kts 68°
2026-04-22 13:18 -8.36728 116.17431 28946 ft 481 kts 68°
2026-04-22 13:19 -8.35524 116.20595 29372 ft 485 kts 68°
2026-04-22 13:19 -8.34308 116.23790 29754 ft 489 kts 68°
2026-04-22 13:19 -8.33080 116.27021 30078 ft 494 kts 68°
2026-04-22 13:19 -8.31860 116.30229 30386 ft 496 kts 68°
2026-04-22 13:20 -8.30622 116.33479 30775 ft 497 kts 68°
2026-04-22 13:20 -8.29384 116.36733 31243 ft 495 kts 68°
2026-04-22 13:20 -8.28153 116.39972 31744 ft 493 kts 68°
2026-04-22 13:20 -8.26925 116.43200 32238 ft 492 kts 68°
2026-04-22 13:21 -8.25658 116.46532 32723 ft 491 kts 69°
2026-04-22 13:21 -8.24480 116.49628 33181 ft 490 kts 69°
2026-04-22 13:21 -8.23249 116.52833 33646 ft 486 kts 66°
2026-04-22 13:21 -8.21552 116.55784 33912 ft 489 kts 50°
2026-04-22 13:22 -8.19064 116.58116 34224 ft 490 kts 34°
2026-04-22 13:22 -8.16063 116.59758 34563 ft 490 kts 22°
2026-04-22 13:22 -8.12791 116.60718 34929 ft 490 kts
2026-04-22 13:22 -8.09446 116.60966 35259 ft 488 kts
2026-04-22 13:23 -8.06047 116.61107 35606 ft 488 kts
2026-04-22 13:23 -8.02651 116.61235 36010 ft 487 kts
2026-04-22 13:23 -7.99263 116.61379 36405 ft 486 kts
2026-04-22 13:23 -7.95885 116.61547 36778 ft 486 kts
2026-04-22 13:24 -7.92502 116.61735 37128 ft 486 kts
2026-04-22 13:24 -7.89167 116.61931 37466 ft 486 kts
2026-04-22 13:24 -7.85795 116.62134 37832 ft 485 kts
2026-04-22 13:24 -7.82422 116.62338 38173 ft 485 kts
2026-04-22 13:25 -7.79051 116.62541 38528 ft 484 kts
2026-04-22 13:25 -7.75693 116.62742 38880 ft 482 kts
2026-04-22 13:25 -7.72335 116.62941 38911 ft 486 kts
2026-04-22 13:26 -7.65606 116.63340 38918 ft 485 kts
2026-04-22 13:26 -7.58897 116.63738 38915 ft 480 kts
2026-04-22 13:27 -7.52353 116.64722 38914 ft 475 kts 23°
2026-04-22 13:27 -7.49475 116.66330 38925 ft 475 kts 37°
2026-04-22 13:27 -7.47109 116.68645 38921 ft 473 kts 50°
2026-04-22 13:28 -7.42926 116.73804 38934 ft 483 kts 50°
2026-04-22 13:28 -7.38623 116.79061 38925 ft 487 kts 50°
2026-04-22 13:29 -7.34256 116.84304 38922 ft 488 kts 50°
2026-04-22 13:29 -7.29866 116.89534 38910 ft 488 kts 50°
2026-04-22 13:30 -7.25513 116.94716 38916 ft 486 kts 50°
2026-04-22 13:30 -7.21152 116.99910 38918 ft 485 kts 50°
2026-04-22 13:31 -7.16843 117.05043 38921 ft 483 kts 50°
2026-04-22 13:31 -7.12503 117.10211 38919 ft 482 kts 50°
2026-04-22 13:32 -7.08201 117.15333 38916 ft 482 kts 50°
2026-04-22 13:32 -7.03874 117.20482 38916 ft 481 kts 50°
2026-04-22 13:33 -6.99548 117.25629 38922 ft 481 kts 50°
2026-04-22 13:33 -6.95231 117.30763 38918 ft 482 kts 50°
2026-04-22 13:34 -6.90890 117.35924 38922 ft 482 kts 50°
2026-04-22 13:34 -6.86540 117.41094 38915 ft 483 kts 50°
2026-04-22 13:35 -6.82195 117.46258 38916 ft 483 kts 50°
2026-04-22 13:35 -6.77874 117.51391 38918 ft 484 kts 50°
2026-04-22 13:36 -6.73519 117.56564 38922 ft 484 kts 50°
2026-04-22 13:36 -6.69161 117.61739 38917 ft 484 kts 50°
2026-04-22 13:37 -6.64525 117.66654 38922 ft 484 kts 43°
2026-04-22 13:37 -6.59527 117.71133 38921 ft 484 kts 41°
2026-04-22 13:38 -6.54471 117.75636 38916 ft 484 kts 42°
2026-04-22 13:38 -6.46995 117.82488 38916 ft 484 kts 43°
2026-04-22 13:39 -6.42036 117.87079 38918 ft 484 kts 43°
2026-04-22 13:39 -6.37106 117.91639 38918 ft 484 kts 43°
2026-04-22 13:40 -6.32141 117.96225 38915 ft 484 kts 43°
2026-04-22 13:40 -6.27231 118.00758 38918 ft 484 kts 43°
2026-04-22 13:41 -6.23104 118.04566 38918 ft 484 kts 43°
2026-04-22 13:41 -6.19782 118.07632 38638 ft 489 kts 43°
2026-04-22 13:41 -6.17281 118.09939 37839 ft 494 kts 43°
2026-04-22 13:42 -6.15597 118.11492 37308 ft 480 kts 43°
2026-04-22 13:42 -6.12418 118.14423 36406 ft 455 kts 43°
2026-04-22 13:42 -6.10882 118.15839 35952 ft 451 kts 43°
2026-04-22 13:42 -6.08551 118.17989 35223 ft 460 kts 43°
2026-04-22 13:43 -6.06144 118.20210 34385 ft 476 kts 43°
2026-04-22 13:43 -6.03693 118.22470 33401 ft 481 kts 43°
2026-04-22 13:43 -6.01187 118.24781 32606 ft 495 kts 43°
2026-04-22 13:43 -5.98669 118.27101 31883 ft 479 kts 43°
2026-04-22 13:44 -5.96280 118.29301 31247 ft 452 kts 43°
2026-04-22 13:44 -5.94048 118.31356 30678 ft 430 kts 43°
2026-04-22 13:44 -5.91868 118.33365 30160 ft 424 kts 43°
2026-04-22 13:44 -5.89675 118.35387 29514 ft 434 kts 43°
2026-04-22 13:45 -5.87405 118.37481 28878 ft 449 kts 43°
2026-04-22 13:45 -5.85081 118.39623 28235 ft 452 kts 43°
2026-04-22 13:45 -5.82768 118.41753 27610 ft 449 kts 43°
2026-04-22 13:45 -5.80475 118.43863 26982 ft 445 kts 43°
2026-04-22 13:46 -5.78228 118.45934 26377 ft 442 kts 43°
2026-04-22 13:46 -5.75975 118.48014 25783 ft 438 kts 43°
2026-04-22 13:46 -5.73741 118.50078 25266 ft 434 kts 43°
2026-04-22 13:46 -5.71518 118.52131 25060 ft 438 kts 43°
2026-04-22 13:47 -5.69270 118.54209 24675 ft 434 kts 43°
2026-04-22 13:47 -5.67088 118.56225 23667 ft 418 kts 43°
2026-04-22 13:47 -5.64978 118.58174 22602 ft 403 kts 43°
2026-04-22 13:47 -5.62945 118.60051 22154 ft 395 kts 43°
2026-04-22 13:48 -5.60922 118.61919 21606 ft 393 kts 43°
2026-04-22 13:48 -5.58910 118.63777 21070 ft 392 kts 43°
2026-04-22 13:48 -5.56930 118.65605 20543 ft 390 kts 43°
2026-04-22 13:48 -5.54929 118.67452 20018 ft 389 kts 43°
2026-04-22 13:49 -5.52939 118.69289 19462 ft 389 kts 43°
2026-04-22 13:49 -5.50945 118.71130 18917 ft 388 kts 43°
2026-04-22 13:49 -5.48964 118.72958 18511 ft 377 kts 43°
2026-04-22 13:49 -5.47100 118.74678 17959 ft 353 kts 43°
2026-04-22 13:50 -5.45340 118.76301 17057 ft 344 kts 43°
2026-04-22 13:50 -5.43526 118.77975 16333 ft 352 kts 43°
2026-04-22 13:50 -5.41758 118.79607 15972 ft 348 kts 43°
2026-04-22 13:50 -5.39971 118.81256 15692 ft 341 kts 43°
2026-04-22 13:51 -5.38254 118.82840 15343 ft 338 kts 43°
2026-04-22 13:51 -5.36528 118.84433 15007 ft 335 kts 43°
2026-04-22 13:51 -5.34788 118.86038 14945 ft 342 kts 43°
2026-04-22 13:51 -5.33039 118.87651 14908 ft 339 kts 43°
2026-04-22 13:52 -5.31318 118.89249 14726 ft 334 kts 46°
2026-04-22 13:52 -5.30006 118.91151 14472 ft 334 kts 67°
2026-04-22 13:52 -5.29422 118.93405 14120 ft 336 kts 85°
2026-04-22 13:52 -5.29351 118.95767 13560 ft 341 kts 89°
2026-04-22 13:53 -5.29363 118.98151 13139 ft 339 kts 90°
2026-04-22 13:53 -5.29388 119.00436 12957 ft 329 kts 90°
2026-04-22 13:53 -5.29408 119.02698 12906 ft 318 kts 90°
2026-04-22 13:53 -5.29420 119.04856 12668 ft 299 kts 90°
2026-04-22 13:54 -5.29424 119.06889 11917 ft 293 kts 90°
2026-04-22 13:54 -5.29423 119.08934 11052 ft 292 kts 89°
2026-04-22 13:54 -5.29420 119.10970 10230 ft 291 kts 89°
2026-04-22 13:54 -5.29414 119.12988 9437 ft 288 kts 89°
2026-04-22 13:55 -5.29408 119.14985 8628 ft 284 kts 89°
2026-04-22 13:55 -5.29401 119.16957 7863 ft 280 kts 90°
2026-04-22 13:55 -5.29393 119.18899 7114 ft 277 kts 90°
2026-04-22 13:55 -5.29386 119.20823 6385 ft 274 kts 90°
2026-04-22 13:56 -5.29378 119.22726 5637 ft 271 kts 90°
2026-04-22 13:56 -5.29371 119.24608 4868 ft 269 kts 90°
2026-04-22 13:56 -5.29363 119.26456 4390 ft 271 kts 90°
2026-04-22 13:56 -5.29356 119.28376 4229 ft 278 kts 90°
2026-04-22 13:57 -5.29348 119.30321 4053 ft 277 kts 90°
2026-04-22 13:57 -5.29340 119.32229 3989 ft 268 kts 90°
2026-04-22 13:57 -5.29332 119.34067 3983 ft 260 kts 90°
2026-04-22 13:57 -5.29324 119.35851 3984 ft 260 kts 90°
2026-04-22 13:58 -5.29317 119.37706 3997 ft 265 kts 90°
2026-04-22 13:58 -5.29308 119.39529 3978 ft 254 kts 90°
2026-04-22 13:58 -5.29284 119.41258 3957 ft 238 kts 85°
2026-04-22 13:58 -5.28747 119.42738 3979 ft 220 kts 54°
2026-04-22 13:59 -5.27690 119.43770 3961 ft 207 kts 35°
2026-04-22 13:59 -5.26456 119.44521 4004 ft 212 kts 31°
2026-04-22 13:59 -5.25199 119.45236 4029 ft 202 kts 31°
2026-04-22 13:59 -5.23995 119.45918 3991 ft 194 kts 30°
2026-04-22 14:00 -5.22810 119.46588 3996 ft 196 kts 31°
2026-04-22 14:00 -5.21632 119.47261 3981 ft 195 kts 31°
2026-04-22 14:00 -5.20446 119.47941 3753 ft 196 kts 31°
2026-04-22 14:00 -5.19270 119.48617 3398 ft 195 kts 31°
2026-04-22 14:01 -5.18078 119.49309 2746 ft 203 kts 31°
2026-04-22 14:01 -5.16854 119.50001 2121 ft 202 kts 29°
2026-04-22 14:01 -5.15621 119.50684 1482 ft 196 kts 30°
2026-04-22 14:01 -5.14507 119.51333 1311 ft 167 kts 31°
2026-04-22 14:02 -5.13519 119.51946 1522 ft 168 kts 34°
2026-04-22 14:02 -5.12549 119.52627 1581 ft 172 kts 32°
2026-04-22 14:02 -5.11507 119.53250 1329 ft 177 kts 32°
2026-04-22 14:02 -5.10480 119.53907 1126 ft 166 kts 32°
2026-04-22 14:03 -5.09433 119.54530 1232 ft 205 kts 32°
2026-04-22 14:03 -5.08189 119.55332 1920 ft 206 kts 32°
2026-04-22 14:03 -5.06893 119.55870 2915 ft 208 kts
2026-04-22 14:03 -5.05371 119.55899 3153 ft 227 kts
2026-04-22 14:04 -5.03825 119.55844 3386 ft 222 kts 354°
2026-04-22 14:04 -5.02310 119.55530 3601 ft 227 kts 341°
2026-04-22 14:04 -5.00831 119.54877 3704 ft 237 kts 332°
2026-04-22 14:04 -4.99351 119.54055 3811 ft 248 kts 330°
2026-04-22 14:05 -4.97795 119.53172 3927 ft 267 kts 330°
2026-04-22 14:05 -4.96155 119.52240 4331 ft 273 kts 331°
2026-04-22 14:05 -4.92850 119.50243 4984 ft 284 kts 322°
2026-04-22 14:06 -4.91465 119.48832 4989 ft 285 kts 307°
2026-04-22 14:06 -4.90508 119.47134 4990 ft 282 kts 291°
2026-04-22 14:06 -4.90029 119.45239 4985 ft 280 kts 276°
2026-04-22 14:06 -4.89909 119.43289 4988 ft 281 kts 271°
2026-04-22 14:07 -4.89960 119.41337 4989 ft 279 kts 261°
2026-04-22 14:07 -4.90478 119.39464 4997 ft 280 kts 246°
2026-04-22 14:07 -4.91335 119.37705 4991 ft 280 kts 241°
2026-04-22 14:07 -4.92260 119.35978 5003 ft 281 kts 240°
2026-04-22 14:08 -4.93196 119.34252 4998 ft 282 kts 240°
2026-04-22 14:08 -4.94138 119.32519 4992 ft 283 kts 240°
2026-04-22 14:08 -4.95083 119.30787 4994 ft 283 kts 240°
2026-04-22 14:08 -4.96068 119.29090 4978 ft 279 kts 233°
2026-04-22 14:09 -4.97369 119.27687 5000 ft 277 kts 217°
2026-04-22 14:09 -4.99003 119.26682 4994 ft 276 kts 202°
2026-04-22 14:09 -5.00837 119.26159 4996 ft 274 kts 187°
2026-04-22 14:09 -5.02740 119.26008 4997 ft 273 kts 181°
2026-04-22 14:10 -5.04642 119.25941 4998 ft 273 kts 181°
2026-04-22 14:10 -5.06548 119.25885 4984 ft 273 kts 180°
2026-04-22 14:10 -5.08436 119.25928 4835 ft 272 kts 171°
2026-04-22 14:10 -5.10274 119.26378 4705 ft 271 kts 162°
2026-04-22 14:11 -5.12043 119.26956 4611 ft 270 kts 161°
2026-04-22 14:11 -5.13821 119.27558 4501 ft 269 kts 161°
2026-04-22 14:11 -5.15588 119.28161 4388 ft 268 kts 160°
2026-04-22 14:11 -5.17353 119.28767 4259 ft 268 kts 160°
2026-04-22 14:12 -5.19118 119.29378 4142 ft 267 kts 160°
2026-04-22 14:12 -5.20872 119.29989 4074 ft 266 kts 160°
2026-04-22 14:12 -5.22626 119.30602 4027 ft 266 kts 160°
2026-04-22 14:12 -5.24356 119.31206 3999 ft 266 kts 160°
2026-04-22 14:13 -5.26103 119.31815 3995 ft 265 kts 160°
2026-04-22 14:13 -5.27815 119.32412 3982 ft 256 kts 160°
2026-04-22 14:13 -5.29465 119.32988 3972 ft 245 kts 160°
2026-04-22 14:13 -5.31093 119.33555 3992 ft 246 kts 160°
2026-04-22 14:14 -5.32698 119.34111 3975 ft 240 kts 160°
2026-04-22 14:14 -5.34239 119.34679 3959 ft 235 kts 149°
2026-04-22 14:14 -5.35408 119.35915 4003 ft 258 kts 114°
2026-04-22 14:14 -5.35642 119.37662 3996 ft 260 kts 79°
2026-04-22 14:15 -5.34803 119.39243 3990 ft 260 kts 43°
2026-04-22 14:15 -5.33219 119.40054 3988 ft 257 kts 15°
2026-04-22 14:15 -5.31594 119.40759 3985 ft 256 kts 40°
2026-04-22 14:15 -5.30281 119.41944 3996 ft 250 kts 43°
2026-04-22 14:16 -5.28991 119.43044 3963 ft 235 kts 37°
2026-04-22 14:16 -5.27638 119.43881 3823 ft 228 kts 30°
2026-04-22 14:16 -5.26288 119.44629 3570 ft 220 kts 30°
2026-04-22 14:16 -5.24961 119.45373 3245 ft 208 kts 30°
2026-04-22 14:17 -5.23752 119.46054 3011 ft 199 kts 30°
2026-04-22 14:17 -5.22569 119.46723 2826 ft 193 kts 30°
2026-04-22 14:17 -5.21419 119.47381 2606 ft 185 kts 31°
2026-04-22 14:17 -5.20332 119.48004 2425 ft 179 kts 31°
2026-04-22 14:18 -5.19222 119.48644 2258 ft 187 kts 30°
2026-04-22 14:18 -5.18101 119.49289 2031 ft 184 kts 30°
2026-04-22 14:18 -5.17017 119.49913 1811 ft 179 kts 31°
2026-04-22 14:18 -5.15924 119.50542 1582 ft 182 kts 31°
2026-04-22 14:19 -5.14830 119.51173 1327 ft 181 kts 31°
2026-04-22 14:19 -5.13741 119.51801 1073 ft 179 kts 30°
2026-04-22 14:19 -5.12658 119.52425 850 ft 180 kts 31°
2026-04-22 14:19 -5.11593 119.53038 620 ft 167 kts 31°
2026-04-22 14:20 -5.09777 119.54086 201 ft 136 kts 32°
2026-04-22 14:20 -5.08994 119.54544 45 ft 128 kts 30°
2026-04-22 14:20 -5.08342 119.54916 44 ft 82 kts 30°
2026-04-22 14:21 -5.07869 119.55189 46 ft 33 kts 29°
2026-04-22 14:21 -5.07709 119.55221 47 ft 22 kts 318°
2026-04-22 14:22 -5.07673 119.55171 46 ft 0 kts 302°
2026-04-22 14:22 -5.07671 119.55168 46 ft 2 kts 303°
2026-04-22 14:23 -5.07660 119.55141 46 ft 6 kts 278°
2026-04-22 14:23 -5.07680 119.55104 46 ft 8 kts 225°
2026-04-22 14:23 -5.07760 119.55044 46 ft 16 kts 209°
2026-04-22 14:23 -5.07856 119.54991 46 ft 16 kts 208°
2026-04-22 14:24 -5.07956 119.54937 46 ft 17 kts 210°
2026-04-22 14:24 -5.08030 119.54890 46 ft 11 kts 220°
2026-04-22 14:24 -5.08053 119.54846 46 ft 11 kts 266°
2026-04-22 14:24 -5.08041 119.54806 46 ft 5 kts 295°
2026-04-22 14:25 -5.08023 119.54771 46 ft 6 kts 299°
2026-04-22 14:25 -5.08005 119.54729 46 ft 6 kts 284°
2026-04-22 14:25 -5.08011 119.54693 46 ft 5 kts 246°
2026-04-22 14:25 -5.08033 119.54667 46 ft 5 kts 222°
2026-04-22 14:26 -5.08073 119.54639 46 ft 5 kts 212°
2026-04-22 14:26 -5.08094 119.54625 46 ft 5 kts 212°
2026-04-22 14:26 -5.08120 119.54607 46 ft 3 kts 225°
2026-04-22 14:26 -5.08127 119.54594 46 ft 3 kts 244°
2026-04-22 14:27 -5.08127 119.54566 46 ft 4 kts 284°
2026-04-22 14:27 -5.08115 119.54544 46 ft 9 kts 308°
2026-04-22 14:27 -5.08102 119.54535 46 ft 1 kts 332°
2026-04-22 14:27 -5.08086 119.54532 46 ft 2 kts 357°
2026-04-22 14:28 -5.08062 119.54531 46 ft 6 kts 357°
2026-04-22 14:28 -5.08037 119.54530 46 ft 0 kts 358°